Weather History for Kansas City International, MO

Change the Weather History Date:

Tuesday, November 26, 2013

  Actual Average Record
Temperature  
Mean Temperature 28 °F 38 °F  
Max Temperature 38 °F 48 °F 78 °F (1990)
Min Temperature 18 °F 29 °F 8 °F (1898)
Degree Days  
Heating Degree Days 37 27  
Month to date heating degree days 593 532  
Since 1 July heating degree days 941 892  
Cooling Degree Days 0 0  
Month to date cooling degree days 0 0  
Year to date cooling degree days 1345 1358  
Moisture  
Dew Point 17 °F    
Average Humidity 58    
Maximum Humidity 81    
Minimum Humidity 35    
Precipitation  
Precipitation 0.00 in 0.06 in 1.19 in (1896)
Month to date precipitation 1.43 1.88  
Year to date precipitation 33.68 37.06  
Snow  
Snow 0.00 in 0.00 in 3.90 in (1975)
Month to date snowfall 0.0 0.8  
Since 1 July snowfall 0.0 1.0  
Since 1 September snowfall 0.0 1.0  
Snow Depth 0.00 in    
Sea Level Pressure  
Sea Level Pressure 30.29 in    
Wind  
Wind Speed 12 mph (NNW)    
Max Wind Speed 26 mph    
Max Gust Speed 32 mph    
Visibility 10 miles    
Events      
T = Trace of Precipitation, MM = Missing Value Source: NWS Daily Summary

Daily Weather History Graph

Daily Weather History Graph

Search for Another Location

Airport:

Trip Planner

Search our weather history database for the weather conditions in past years. The results will help you decide how hot, cold, wet, or windy it might be!

Date:

Astronomy

Nov. 26, 2013 Rise Set
Actual Time 7:14 AM CST 4:57 PM CST
Civil Twilight 6:45 AM CST 5:27 PM CST
Nautical Twilight 6:12 AM CST 6:00 PM CST
Astronomical Twilight 5:40 AM CST 6:32 PM CST
Moon 12:21 AM CST (11/26) 1:02 PM CST (11/26)
Length of Visible Light 10h 41m
Length of Day
9h 42m
Last Quarter, 41% of the Moon is Illuminated
Nov 26
Last Quarter
Dec 2
New
Dec 9
First Quarter
Dec 17
Full
Dec 25
Last Quarter

Hourly Weather History & Observations

Time (CST) Temp. Windchill Dew Point Humidity Pressure Visibility Wind Dir Wind Speed Gust Speed Precip Events Conditions
12:53 AM 30.0 °F 23.2 °F 23.0 °F 75% 30.19 in 10.0 mi WNW 6.9 mph - N/A   Scattered Clouds
1:53 AM 28.9 °F 21.9 °F 23.0 °F 78% 30.17 in 10.0 mi WNW 6.9 mph - N/A   Scattered Clouds
2:53 AM 27.0 °F 20.5 °F 21.9 °F 81% 30.18 in 10.0 mi WNW 5.8 mph - N/A   Partly Cloudy
3:53 AM 27.0 °F 20.5 °F 21.9 °F 81% 30.19 in 10.0 mi NW 5.8 mph - N/A   Partly Cloudy
4:53 AM 27.0 °F 19.5 °F 21.9 °F 81% 30.20 in 10.0 mi NW 6.9 mph - N/A   Partly Cloudy
5:53 AM 27.0 °F 20.5 °F 21.0 °F 78% 30.21 in 10.0 mi WNW 5.8 mph - N/A   Clear
6:53 AM 26.1 °F 18.4 °F 21.0 °F 81% 30.23 in 10.0 mi NW 6.9 mph - N/A   Clear
7:53 AM 27.0 °F 19.5 °F 21.9 °F 81% 30.25 in 10.0 mi NW 6.9 mph - N/A   Partly Cloudy
8:53 AM 30.9 °F 19.1 °F 21.9 °F 69% 30.27 in 10.0 mi NNW 18.4 mph 24.2 mph N/A   Partly Cloudy
9:38 AM 33.8 °F 23.9 °F 21.2 °F 60% 30.24 in 10.0 mi NNW 15.0 mph 24.2 mph N/A   Mostly Cloudy
9:53 AM 32.0 °F 18.6 °F 19.9 °F 61% 30.28 in 10.0 mi North 25.3 mph 32.2 mph N/A   Overcast
10:45 AM 33.8 °F 21.0 °F 21.2 °F 60% 30.26 in 10.0 mi North 25.3 mph 31.1 mph N/A   Overcast
10:53 AM 34.0 °F 24.2 °F 21.0 °F 59% 30.29 in 10.0 mi NNW 15.0 mph 31.1 mph N/A   Overcast
11:53 AM 35.1 °F 24.5 °F 21.0 °F 57% 30.28 in 10.0 mi North 18.4 mph 26.5 mph N/A   Mostly Cloudy
12:53 PM 35.1 °F 25.2 °F 19.9 °F 54% 30.28 in 10.0 mi North 16.1 mph 24.2 mph N/A   Mostly Cloudy
1:53 PM 37.9 °F 28.2 °F 16.0 °F 41% 30.27 in 10.0 mi North 18.4 mph 28.8 mph N/A   Scattered Clouds
2:53 PM 37.0 °F 26.7 °F 12.9 °F 37% 30.27 in 10.0 mi North 19.6 mph 26.5 mph N/A   Partly Cloudy
3:53 PM 34.0 °F 23.8 °F 15.1 °F 46% 30.30 in 10.0 mi North 16.1 mph 24.2 mph N/A   Partly Cloudy
4:53 PM 28.9 °F 16.5 °F 12.9 °F 51% 30.35 in 10.0 mi NNW 18.4 mph 23.0 mph N/A   Partly Cloudy
5:53 PM 26.1 °F 17.6 °F 12.9 °F 58% 30.36 in 10.0 mi North 8.1 mph - N/A   Partly Cloudy
6:53 PM 26.1 °F 15.6 °F 12.9 °F 58% 30.38 in 10.0 mi NNW 11.5 mph - N/A   Partly Cloudy
7:53 PM 24.1 °F 14.4 °F 10.9 °F 57% 30.40 in 10.0 mi NNW 9.2 mph - N/A   Clear
8:53 PM 21.9 °F 12.5 °F 9.0 °F 58% 30.41 in 10.0 mi NNW 8.1 mph - N/A   Clear
9:53 PM 21.0 °F 11.4 °F 8.1 °F 57% 30.42 in 10.0 mi NNW 8.1 mph - N/A   Clear
10:53 PM 19.9 °F 10.1 °F 7.0 °F 57% 30.43 in 10.0 mi NNW 8.1 mph - N/A   Clear
11:53 PM 19.0 °F 11.1 °F 7.0 °F 59% 30.43 in 10.0 mi NNW 5.8 mph - N/A   Clear